Regional Weather Roundup
Issued by NWS

Home | Current Version | Previous Version | Text Only | Print | Product List | Glossary On
Versions: 1 2 3 4 5 6 7 8 9 10 11 12 13 14 15 16 17 18 19 20 21 22 23 24 25 26 27 28 29 30 31 32 33 34 35 36 37 38 39 40 41 42 43 44 45 46 47 48 49 50
000
ASUS43 KBIS 211120
RWRND

NORTH DAKOTA REGIONAL WEATHER ROUNDUP
NATIONAL WEATHER SERVICE BISMARCK ND
600 AM CDT TUE OCT 21 2014

NOTE: "FAIR" INDICATES FEW OR NO CLOUDS BELOW 12,000 FEET WITH NO
SIGNIFICANT WEATHER AND/OR OBSTRUCTIONS TO VISIBILITY.


NDZ001>003-009>011-017-211200-
NORTHWEST NORTH DAKOTA

CITY           SKY/WX    TMP DP  RH WIND       PRES   REMARKS
WILLISTON      CLEAR     39  36  89 NE3       29.76F
MINOT          CLEAR     46  34  62 E8        29.83F
MINOT AFB      CLEAR     39  37  91 SE12      29.83F
$$

NDZ018>021-031>035-040>046-211200-
SOUTHWEST NORTH DAKOTA

CITY           SKY/WX    TMP DP  RH WIND       PRES   REMARKS
BISMARCK       CLEAR     53  36  52 SE13      29.86F
DICKINSON      CLEAR     40  34  79 SE12      29.78S
GARRISON         N/A     49  36  61 SE7       29.83F
HETTINGER ARPT CLEAR     40  35  83 E5        29.81S
$$

NDZ004>008-012>016-024-026-027-054-211200-
NORTHEAST NORTH DAKOTA

CITY           SKY/WX    TMP DP  RH WIND       PRES   REMARKS
GRAND FORKS    CLEAR     39  37  92 S10       30.04R
GRND FRKS AFB  CLEAR     37  37  99 S8        30.03S
DEVILS LAKE    CLEAR     46  36  66 SE14      29.93F
$$

NDZ022-023-025-028>030-036>039-047>053-211200-
SOUTHEAST NORTH DAKOTA

CITY           SKY/WX    TMP DP  RH WIND       PRES   REMARKS
FARGO          CLEAR     43  38  82 SE14      30.05S
JAMESTOWN      CLEAR     47  38  71 SE15      29.96S
$$



USA.gov is the U.S. government's official web portal to all federal, state and local government web resources and services.